Погода в Дубовом

Украина / Луганская область     48°07′34″N   39°40′17″E
темп.,
°C
ветер,
м/с
пор.,
м/с
влажн.,
%
обл.,
%
осадки,
мм/ч
давл.,
гПа
погр.,
м
8 марта, пн
пн823:00−2зюз815660 0.0 1016832
02:00−2юз815660 0.0 1015651
05:00−2юз8157023 0.0 1014528
08:000зюз9146859 0.0 1013743
11:00+4зюз9145290 0.0 10131691
14:00+5зюз9145195 0.0 10121926
17:00+2юз61272100 0.1 1011400
20:00+1юз7129697 0.3 1012452
9 марта, вт
вт923:00+1зюз5996100 0.1 1012465
02:00−1сз4697100 0.6 1012364
05:00−1з3886100 0.2 1012456
08:00−1зсз586891 0.2 1013830
11:00+1зсз67560 0.0 10141466
14:00+2зсз685416 0.3 10141706
17:00−1сз597198 0.3 1015542
20:00−3ссз587297 0.3 1019666
10 марта, ср
ср1023:00−4сз477312 0.0 1020711
02:00−5ссз567124 0.0 1022900
05:00−6ссз466587 0.0 1023811
08:00−5ссз465545 0.0 1025845
11:00−3с443914 0.0 10251144
14:00−2с333731 0.0 10251256
17:00−3ссв344548 0.0 1024674
20:00−4св355046 0.0 1025494
11 марта, чт
чт1123:00−5всв354815 0.0 1025560
02:00−5всв34507 0.0 1025629
05:00−6всв45540 0.0 1026486
08:00−5всв45500 0.0 1027666
11:00−4всв55441 0.0 10281080
14:00−3св444336 0.0 10281283
17:00−5св454785 0.0 10281041
20:00−6в453355 0.0 1030714
12 марта, пт
пт1223:00−7в45350 0.0 1030621
02:00−8вюв34390 0.0 1031548
05:00−9юв45450 0.0 1031459
08:00−8юв464117 0.0 1031537
11:00−4ююв562840 0.0 1030835
14:00−2ююв572754 0.0 1028975
17:00−3ююв583268 0.0 1027913
20:00−3ююв7113684 0.0 1025874